TimeAKST,TemperatureF,Dew PointF,Humidity,Sea Level PressureIn,VisibilityMPH,Wind Direction,Wind SpeedMPH,Gust SpeedMPH,PrecipitationIn,Events,Conditions,WindDirDegrees,DateUTC
12:53 AM,1.9,-2.0,83,29.55,1.5,East,17.3,-,N/A,Snow,Blowing Snow,80,2013-03-09 09:53:00
1:13 AM,1.4,-2.2,85,29.54,0.8,East,25.3,31.1,N/A,Snow,Blowing Snow,80,2013-03-09 10:13:00
1:23 AM,1.4,-2.2,85,29.54,1.2,ENE,24.2,-,N/A,Snow,Blowing Snow,70,2013-03-09 10:23:00
1:30 AM,1.4,-2.2,85,29.54,1.5,ENE,21.9,-,N/A,Snow,Blowing Snow,70,2013-03-09 10:30:00
1:53 AM,1.9,-2.9,80,29.55,1.8,ENE,18.4,-,N/A,Snow,Blowing Snow,70,2013-03-09 10:53:00
2:31 AM,1.4,-2.2,85,29.54,1.2,East,23.0,-,N/A,Snow,Blowing Snow,80,2013-03-09 11:31:00
2:39 AM,1.4,-2.2,85,29.54,1.2,East,24.2,-,N/A,Snow,Blowing Snow,80,2013-03-09 11:39:00
3:53 AM,1.9,-4.0,76,29.54,1.5,East,23.0,-,N/A,Snow,Blowing Snow,80,2013-03-09 12:53:00
4:19 AM,1.4,-4.0,78,29.54,2.0,ENE,19.6,-,N/A,Snow,Blowing Snow,70,2013-03-09 13:19:00
4:36 AM,1.4,-4.0,78,29.54,1.5,ENE,23.0,-,N/A,Snow,Blowing Snow,70,2013-03-09 13:36:00
4:53 AM,1.0,-4.0,79,29.55,1.8,ENE,21.9,-,N/A,Snow,Blowing Snow,70,2013-03-09 13:53:00
5:00 AM,1.4,-4.0,78,29.54,2.0,ENE,23.0,-,N/A,Snow,Blowing Snow,70,2013-03-09 14:00:00
5:31 AM,1.4,-4.0,78,29.55,2.0,East,21.9,-,N/A,Snow,Blowing Snow,80,2013-03-09 14:31:00
5:53 AM,1.0,-4.0,79,29.56,2.5,East,19.6,-,N/A,,Haze,80,2013-03-09 14:53:00
6:44 AM,-0.4,-5.8,78,29.56,1.8,East,24.2,-,N/A,Snow,Blowing Snow,90,2013-03-09 15:44:00
6:53 AM,-0.0,-5.1,79,29.56,1.8,East,25.3,-,N/A,Snow,Blowing Snow,90,2013-03-09 15:53:00
7:14 AM,-0.4,-5.8,78,29.56,2.0,East,25.3,-,N/A,Snow,Blowing Snow,90,2013-03-09 16:14:00
7:53 AM,-0.0,-6.0,76,29.57,2.5,East,25.3,-,N/A,,Haze,90,2013-03-09 16:53:00
8:20 AM,-0.4,-5.8,78,29.57,3.0,East,21.9,-,N/A,,Haze,90,2013-03-09 17:20:00
8:45 AM,-0.4,-5.8,78,29.57,1.2,East,20.7,27.6,N/A,,Haze,90,2013-03-09 17:45:00
8:53 AM,-0.0,-5.1,79,29.58,1.8,East,20.7,-,N/A,,Haze,90,2013-03-09 17:53:00
9:01 AM,1.4,-5.8,72,29.58,2.5,East,17.3,-,N/A,,Haze,80,2013-03-09 18:01:00
9:26 AM,1.4,-4.0,78,29.59,3.0,East,18.4,-,N/A,,Haze,80,2013-03-09 18:26:00
9:53 AM,1.0,-4.0,79,29.60,4.0,East,18.4,-,N/A,,Haze,90,2013-03-09 18:53:00
10:03 AM,1.4,-4.0,78,29.59,1.8,East,23.0,28.8,N/A,Snow,Blowing Snow,90,2013-03-09 19:03:00
10:53 AM,1.9,-2.9,80,29.59,1.5,East,25.3,-,N/A,Snow,Blowing Snow,100,2013-03-09 19:53:00
11:49 AM,3.2,-2.2,78,29.60,3.0,East,20.7,-,N/A,,Haze,100,2013-03-09 20:49:00
11:53 AM,3.0,-2.0,80,29.60,3.0,East,20.7,-,N/A,,Haze,100,2013-03-09 20:53:00
12:53 PM,5.0,-0.0,80,29.62,4.0,East,20.7,-,N/A,,Haze,100,2013-03-09 21:53:00
1:53 PM,5.0,-0.0,80,29.63,4.0,East,19.6,-,N/A,,Haze,90,2013-03-09 22:53:00
2:17 PM,6.8,1.4,79,29.63,2.5,East,21.9,-,N/A,,Haze,90,2013-03-09 23:17:00
2:53 PM,6.1,1.0,80,29.64,2.0,East,23.0,-,N/A,,Haze,100,2013-03-09 23:53:00
3:36 PM,6.8,1.4,79,29.65,1.8,East,23.0,-,N/A,,Haze,100,2013-03-10 00:36:00
3:53 PM,6.1,1.0,80,29.66,1.8,East,24.2,-,N/A,,Haze,100,2013-03-10 00:53:00
4:19 PM,6.8,1.4,79,29.67,2.5,East,19.6,-,N/A,,Haze,90,2013-03-10 01:19:00
4:33 PM,6.8,1.4,79,29.69,3.0,ENE,17.3,-,N/A,,Haze,70,2013-03-10 01:33:00
4:53 PM,5.0,-0.0,80,29.70,5.0,East,18.4,-,N/A,,Haze,90,2013-03-10 01:53:00
5:53 PM,5.0,-0.0,80,29.71,5.0,East,21.9,-,N/A,,Haze,90,2013-03-10 02:53:00
6:24 PM,5.0,-0.4,78,29.72,2.5,East,21.9,-,N/A,,Haze,90,2013-03-10 03:24:00
6:34 PM,5.0,-0.4,78,29.72,3.0,East,24.2,-,N/A,Snow,Blowing Snow,90,2013-03-10 03:34:00
6:53 PM,5.0,1.0,84,29.73,3.0,East,20.7,-,N/A,Snow,Blowing Snow,100,2013-03-10 03:53:00
7:20 PM,6.8,1.4,79,29.75,2.0,East,19.6,-,0.00,Snow,Light Snow,100,2013-03-10 04:20:00
7:53 PM,6.1,1.0,80,29.78,1.0,ESE,18.4,-,0.00,Snow,Light Snow,110,2013-03-10 04:53:00
8:33 PM,6.8,1.4,79,29.79,1.2,ESE,12.7,-,0.00,Snow,Light Snow,110,2013-03-10 05:33:00
8:53 PM,7.0,1.9,80,29.81,1.0,ESE,15.0,-,0.00,Snow,Light Snow,120,2013-03-10 05:53:00
9:16 PM,6.8,3.2,85,29.82,1.2,ESE,13.8,-,0.00,Snow,Light Snow,120,2013-03-10 06:16:00
9:53 PM,8.1,3.0,80,29.84,1.2,SE,9.2,-,0.00,Snow,Light Snow,130,2013-03-10 06:53:00
10:32 PM,8.6,3.2,79,29.86,2.0,ESE,6.9,-,0.00,Snow,Light Snow,120,2013-03-10 07:32:00
10:40 PM,8.6,3.2,79,29.86,1.8,ESE,8.1,-,0.00,Snow,Light Snow,120,2013-03-10 07:40:00
10:53 PM,9.0,5.0,84,29.88,4.0,ESE,8.1,-,0.00,Snow,Light Snow,110,2013-03-10 07:53:00
11:19 PM,19.4,15.8,86,29.88,4.0,WSW,15.0,-,0.00,Snow,Light Snow,250,2013-03-10 08:19:00
11:27 PM,19.4,15.8,86,29.89,5.0,WSW,13.8,-,0.00,Snow,Light Snow,250,2013-03-10 08:27:00
11:53 PM,19.0,14.0,81,29.91,3.0,WSW,11.5,-,0.00,Snow,Light Snow,250,2013-03-10 08:53:00